Location: Deneb Observatory
(47.2267°N, 100.4953°W)
Time: 07:21:45
(UTC-05:00)

Iridium 66 - Visible Passes

Search period start: 02 August 2015 00:00
Search period end: 12 August 2015 00:00
Orbit: 776 x 779 km, 86.4° (Epoch: 01 August)

Date Brightness Start Highest point End Pass type
(mag) Time Alt. Az. Time Alt. Az. Time Alt. Az.
02 Aug 7.5 01:34:42 10° NNE 01:38:59 26° ENE 01:40:24 23° E visible
02 Aug 6.5 03:15:01 10° NNW 03:19:58 44° W 03:20:51 41° WSW visible
03 Aug 8.1 01:02:05 10° NNE 01:05:02 15° ENE 01:06:48 14° E visible
03 Aug 5.9 02:41:17 10° N 02:46:32 78° W 02:47:15 65° SSW visible
03 Aug 8.2 04:25:04 10° WNW 04:26:27 11° WNW 04:27:31 10° W visible
04 Aug 6.2 02:07:47 10° N 02:12:58 61° E 02:13:39 56° ESE visible
04 Aug 7.6 03:49:36 10° NW 03:53:16 19° W 03:54:06 18° W visible
05 Aug 7.0 01:34:30 10° NNE 01:39:16 35° ENE 01:40:03 33° E visible
05 Aug 7.0 03:15:21 10° NNW 03:19:58 32° W 03:20:30 31° W visible
06 Aug 7.7 01:01:32 10° NNE 01:05:24 21° ENE 01:06:27 20° E visible
06 Aug 6.2 02:41:28 10° NNW 02:46:36 56° W 02:46:55 55° WSW visible
07 Aug 8.3 00:29:22 10° NE 00:31:23 12° ENE 00:32:52 11° E visible
07 Aug 5.9 02:07:50 10° N 02:13:06 85° E 02:13:20 81° SE visible
07 Aug 8.0 03:50:31 10° NW 03:53:10 14° WNW 03:53:47 13° W visible
08 Aug 6.5 01:34:25 10° N 01:39:29 49° E 01:39:45 48° E visible
08 Aug 7.4 03:15:49 10° NNW 03:19:56 23° W 03:20:12 23° W visible
09 Aug 7.3 01:01:14 10° NNE 01:05:43 29° ENE 01:06:10 28° E visible
09 Aug 6.7 02:41:45 10° NNW 02:46:36 40° W 02:46:38 40° W visible
10 Aug 7.9 00:28:29 10° NNE 00:31:47 17° ENE 00:32:36 17° E visible
10 Aug 6.0 02:07:58 10° N 02:13:04 69° W 02:13:04 69° W visible
11 Aug 6.1 01:34:25 10° N 01:39:30 68° ENE 01:39:30 68° ENE visible
11 Aug 7.9 03:16:29 10° NW 03:19:52 17° WNW 03:19:58 17° W visible
